Location: The Saddle
(36.8333°N, 80.3417°W)
Time: 14:31:54
(UTC-05:00)

X-37B - Pass Details

Date: 28 November 2023
Orbit: 277 x 277 km, 45.0° (Epoch: 01 November)

Event Time Altitude Azimuth Distance (km) Brightness Sun altitude
Rises 17:58:01 0° 225° (SW) 1,900 5.4 -10.5°
Reaches altitude 10° 17:59:59 10° 217° (SW) 1,092 3.8 -10.8°
Maximum altitude 18:02:16 37° 146° (SE) 444 0.7 -11.3°
Enters shadow 18:03:24 22° 91° (E) 665 1.2 -11.5°
